Weather reports worldwide

Advertisment
Eskdalemuir, United Kingdom (3162): temperature & dewpoint: 15.01.2020 06:00:00 - 21.01.2020 06:00:00 (GMT)Eskdalemuir, United Kingdom (3162): temperature -20cm & temperature -100cm: 15.01.2020 06:00:00 - 21.01.2020 06:00:00 (GMT)Eskdalemuir, United Kingdom (3162): wind speed & gusts: 15.01.2020 06:00:00 - 21.01.2020 06:00:00 (GMT)Eskdalemuir, United Kingdom (3162): wind direction: 15.01.2020 06:00:00 - 21.01.2020 06:00:00 (GMT)Eskdalemuir, United Kingdom (3162): reduced air pressure: 15.01.2020 06:00:00 - 21.01.2020 06:00:00 (GMT)Eskdalemuir, United Kingdom (3162): visibility: 15.01.2020 06:00:00 - 21.01.2020 06:00:00 (GMT)Eskdalemuir, United Kingdom (3162): sunshine duration: 15.01.2020 06:00:00 - 21.01.2020 06:00:00 (GMT)Eskdalemuir, United Kingdom (3162): precipitation: 15.01.2020 06:00:00 - 21.01.2020 06:00:00 (GMT)
Date & Time tt [°C] td [°C] tt -20cm [°C] tt -100cm [°C] ff [km/h] ff [kn] fx [km/h] fx [kn] dd ppp [hPa] vv [km] sd [min] rr [mm]
21.01.2020 06:00:00 - - - - - - - - - - - - -
21.01.2020 05:00:00 5,0 4,9 - - 13 7 - - SE 1040,4 4,0 0 0,0
21.01.2020 04:00:00 4,8 4,6 - - 9 5 - - SE 1040,2 4,3 0 0,0
21.01.2020 03:00:00 4,9 4,4 - - 9 5 - - S 1040,6 11 0 0,0
21.01.2020 02:00:00 5,0 4,3 - - 11 6 - - S 1040,4 13 0 0,0
21.01.2020 01:00:00 5,0 4,2 - - 9 5 - - S 1041,2 13 0 0,0
21.01.2020 00:00:00 5,2 4,0 - - 15 8 - - SSW 1041,6 15 - 0,0
20.01.2020 23:00:00 5,4 3,7 - - 18 10 - - SSW 1041,4 17 0 0,0
20.01.2020 22:00:00 5,0 3,7 - - 16 9 - - SSW 1041,7 15 0 0,0
20.01.2020 21:00:00 5,0 3,5 - - 15 8 - - SSW 1042,1 19 0 0,0
20.01.2020 20:00:00 4,9 3,4 - - 15 8 - - SSW 1042,5 18 0 0,0
20.01.2020 19:00:00 5,2 2,9 - - 21 11 - - SW 1042,5 20 0 0,0
20.01.2020 18:00:00 5,3 3,3 - - 21 11 - - SW 1042,9 21 0 0,0
20.01.2020 17:00:00 5,1 3,6 - - 21 11 - - SW 1042,7 17 0 0,0
20.01.2020 16:00:00 5,0 3,5 - - 16 9 - - SSW 1043,2 20 0 0,0
20.01.2020 15:00:00 5,1 3,3 - - 21 11 - - SSW 1043,3 20 0 0,0
20.01.2020 14:00:00 5,1 3,4 - - 21 11 - - SSW 1043,5 25 0 0,0
20.01.2020 13:00:00 4,9 3,1 - - 18 10 - - SSW 1044,1 22 0 0,0
20.01.2020 12:00:00 4,7 3,2 - - 18 10 - - SSW 1044,5 18 0 0,0
20.01.2020 11:00:00 4,4 3,3 - - 15 8 - - SSW 1044,8 18 0 0,0
20.01.2020 10:00:00 4,2 3,3 - - 16 9 - - SSW 1044,7 18 0 0,0
20.01.2020 09:00:00 4,0 3,1 4,9 6,5 15 8 - - SSW 1044,7 17 0 0,0
20.01.2020 08:00:00 3,9 3,2 - - 15 8 - - S 1044,7 20 0 0,0
20.01.2020 07:00:00 3,9 2,7 - - 13 7 - - S 1044,6 17 0 0,0
20.01.2020 06:00:00 3,7 2,6 - - 22 12 - - SW 1044,7 19 0 0,0
20.01.2020 05:00:00 3,5 2,3 - - 18 10 - - SSW 1045,0 18 0 0,0
20.01.2020 04:00:00 2,6 1,9 - - 21 11 - - S 1045,4 16 0 0,0
20.01.2020 03:00:00 1,8 1,2 - - 15 8 - - S 1045,5 20 0 0,0
20.01.2020 02:00:00 1,2 0,6 - - 11 6 - - SSW 1045,5 20 0 0,0
20.01.2020 01:00:00 1,2 0,6 - - 9 5 - - SSE 1045,7 21 0 0,0
20.01.2020 00:00:00 1,2 0,5 - - 8 4 - - SSE 1045,9 23 - 0,0
19.01.2020 23:00:00 1,9 0,2 - - 15 8 - - SW 1045,5 30 0 0,0
19.01.2020 22:00:00 2,6 0,0 - - 18 10 - - SW 1045,0 30 0 0,0
19.01.2020 21:00:00 2,5 0,2 - - 18 10 - - SSW 1045,4 35 0 0,0
19.01.2020 20:00:00 3,2 0,0 - - 24 13 - - SW 1045,4 45 0 0,0
19.01.2020 19:00:00 3,4 0,2 - - 24 13 - - SW 1045,5 50 0 0,0
19.01.2020 18:00:00 2,4 1,2 - - 15 8 - - S 1045,3 29 0 0,0
19.01.2020 17:00:00 2,8 1,5 - - 21 11 - - SSW 1044,8 35 0 0,0
19.01.2020 16:00:00 2,3 2,2 - - 11 6 - - S 1044,7 8 0 0,0
19.01.2020 15:00:00 3,1 2,9 - - 16 9 - - SSW 1044,6 11 0 0,0
19.01.2020 14:00:00 2,9 2,7 - - 15 8 - - SSW 1044,9 11 0 0,0
19.01.2020 13:00:00 1,5 1,5 - - 11 6 - - SSW 1045,2 10 0 0,0
19.01.2020 12:00:00 -0,8 -0,9 - - 4 2 - - E 1045,5 9 6 0,0
19.01.2020 11:00:00 -2,1 -2,3 - - 2 1 - - SSE 1045,3 5 24 0,0
19.01.2020 10:00:00 -3,5 -3,9 - - 2 1 - - NE 1045,0 7 0 0,0
19.01.2020 09:00:00 -3,1 -3,4 5,4 6,7 2 1 - - S 1044,8 0,9 0 0,0
19.01.2020 08:00:00 -3,4 -3,7 - - 0 0 - - N 1044,0 0,8 0 0,0
19.01.2020 07:00:00 -4,1 -4,4 - - 4 2 - - N 1043,7 0,6 0 0,0
19.01.2020 06:00:00 -4,9 -5,4 - - 4 2 - - SE 1042,6 0,2 0 0,0
19.01.2020 05:00:00 -3,3 -3,6 - - 2 1 - - E 1041,7 0,6 0 0,0
19.01.2020 04:00:00 -3,0 -3,4 - - 4 2 - - NNW 1041,0 20 0 0,0
19.01.2020 03:00:00 -3,5 -3,9 - - 4 2 - - NW 1040,6 23 0 0,0
19.01.2020 02:00:00 -3,3 -3,8 - - 2 1 - - NW 1040,2 21 0 0,0
19.01.2020 01:00:00 -2,9 -3,5 - - 5 3 - - NNW 1039,4 25 0 0,0
19.01.2020 00:00:00 -0,9 -1,4 - - 5 3 - - SE 1038,3 26 - 0,0
18.01.2020 23:00:00 -0,7 -1,7 - - 4 2 - - SSE 1037,2 27 0 0,0
18.01.2020 22:00:00 0,2 -1,2 - - 5 3 - - N 1035,8 30 0 0,0
18.01.2020 21:00:00 2,0 -1,2 - - 4 2 - - S 1035,0 30 0 0,0
18.01.2020 20:00:00 0,2 -1,6 - - 4 2 - - S 1034,4 35 0 0,0
18.01.2020 19:00:00 0,8 -1,1 - - 4 2 - - E 1033,3 40 0 0,0
18.01.2020 18:00:00 1,1 -0,1 - - 5 3 - - W 1032,1 45 0 0,0
18.01.2020 17:00:00 2,4 0,1 - - 5 3 - - NE 1030,7 35 0 0,0
18.01.2020 16:00:00 3,3 0,2 - - 15 8 - - W 1029,7 40 0 0,0
18.01.2020 15:00:00 4,1 0,5 - - 9 5 - - W 1028,5 45 0 0,0
18.01.2020 14:00:00 4,5 0,5 - - 9 5 - - W 1027,4 45 0 0,0
18.01.2020 13:00:00 3,2 1,3 - - 11 6 - - SSW 1026,8 30 0 0,0
18.01.2020 12:00:00 3,0 0,3 - - 11 6 - - SSW 1026,0 40 6 0,0
18.01.2020 11:00:00 2,0 0,0 - - 9 5 - - WSW 1025,5 50 0 0,0
18.01.2020 10:00:00 0,8 -0,8 - - 9 5 - - SSE 1024,7 45 6 0,0
18.01.2020 09:00:00 1,7 -0,4 5,7 6,7 13 7 - - WNW 1023,3 50 0 0,0
18.01.2020 08:00:00 1,8 -0,4 - - 13 7 - - W 1022,5 50 0 0,0
18.01.2020 07:00:00 1,5 -0,5 - - 11 6 - - W 1021,5 30 0 0,0
18.01.2020 06:00:00 1,8 -0,7 - - 24 13 - - WNW 1020,3 40 0 0,0
18.01.2020 05:00:00 1,8 -0,9 - - 16 9 - - WNW 1019,4 45 0 0,0
18.01.2020 04:00:00 2,0 -0,8 - - 24 13 55 30 W 1018,4 50 0 0,0
18.01.2020 03:00:00 2,6 -1,1 - - 29 16 48 26 WNW 1017,4 29 0 0,0
18.01.2020 02:00:00 2,5 -0,5 - - 15 8 48 26 W 1016,9 23 0 0,0
18.01.2020 01:00:00 2,1 -0,5 - - 21 11 - - W 1016,0 25 0 0,0
18.01.2020 00:00:00 2,6 -0,2 - - 13 7 - - W 1015,1 18 - 0,0
17.01.2020 23:00:00 2,4 1,3 - - 5 3 - - S 1014,2 19 0 0,0
17.01.2020 22:00:00 2,7 1,4 - - 5 3 - - WSW 1013,3 14 0 0,2
17.01.2020 21:00:00 2,5 1,5 - - 4 2 - - SSW 1012,4 27 0 0,0
17.01.2020 20:00:00 2,0 1,6 - - 9 5 - - SSE 1011,4 27 0 0,0
17.01.2020 19:00:00 2,4 1,8 - - 9 5 - - S 1010,5 29 0 0,0
17.01.2020 18:00:00 2,7 1,6 - - 8 4 - - S 1009,5 30 0 0,0
17.01.2020 17:00:00 3,4 1,1 - - 18 10 - - SW 1008,5 50 0 0,0
17.01.2020 16:00:00 3,7 1,6 - - 16 9 - - SW 1007,8 24 0 0,0
17.01.2020 15:00:00 3,9 2,0 - - 15 8 - - SSW 1007,3 26 24 0,0
17.01.2020 14:00:00 4,6 2,3 - - 13 7 - - SW 1006,8 22 18 0,0
17.01.2020 13:00:00 3,4 1,7 - - 8 4 - - SSW 1006,7 26 18 0,0
17.01.2020 12:00:00 2,8 1,8 - - 11 6 - - S 1006,3 22 6 0,0
17.01.2020 11:00:00 1,9 1,8 - - 8 4 - - SE 1006,2 18 0 0,0
17.01.2020 10:00:00 1,0 1,0 - - 9 5 - - SE 1005,5 12 0 0,0
17.01.2020 09:00:00 1,6 1,6 5,7 6,7 5 3 - - S 1004,9 12 0 0,0
17.01.2020 08:00:00 1,9 1,7 - - 2 1 - - SE 1004,5 15 0 0,0
17.01.2020 07:00:00 2,2 2,1 - - 8 4 - - S 1003,8 9 0 0,0
17.01.2020 06:00:00 3,0 2,6 - - 11 6 - - SSW 1003,3 16 0 0,0
17.01.2020 05:00:00 2,7 2,4 - - 11 6 - - SSW 1003,1 14 0 0,0
17.01.2020 04:00:00 2,7 2,4 - - 11 6 - - S 1003,2 13 0 0,0
17.01.2020 03:00:00 3,6 3,1 - - 9 5 - - SSW 1003,0 15 0 0,0
17.01.2020 02:00:00 3,8 3,1 - - 9 5 - - SE 1003,1 14 0 0,0
17.01.2020 01:00:00 3,8 3,0 - - 8 4 - - S 1002,7 15 0 0,0
17.01.2020 00:00:00 5,0 3,5 - - 18 10 - - SSW 1002,1 17 - 0,0
16.01.2020 23:00:00 5,8 3,7 - - 18 10 - - SSW 1001,3 23 0 0,0
16.01.2020 22:00:00 6,1 4,2 - - 18 10 - - SSW 1000,2 28 0 0,0
16.01.2020 21:00:00 6,4 4,7 - - 24 13 - - SSW 999,0 45 0 0,0
16.01.2020 20:00:00 7,7 6,8 - - 29 16 65 35 SSW 997,2 14 0 1,2
16.01.2020 19:00:00 8,7 8,4 - - 39 21 63 34 SSW 995,9 5 0 0,6
16.01.2020 18:00:00 8,9 8,5 - - 39 21 63 34 S 995,4 4,3 0 1,8
16.01.2020 17:00:00 8,0 7,3 - - 31 17 50 27 SSE 995,5 3,1 0 4,4
16.01.2020 16:00:00 6,9 6,4 - - 21 11 - - SSE 995,9 6 0 4,6
16.01.2020 15:00:00 6,4 5,4 - - 26 14 - - SSE 997,5 7 0 2,2
16.01.2020 14:00:00 5,7 4,6 - - 24 13 - - SSE 1000,1 7 0 1,4
16.01.2020 13:00:00 6,3 3,5 - - 24 13 - - SSE 1002,1 25 0 0,0
16.01.2020 12:00:00 6,0 3,8 - - 21 11 - - SSE 1004,2 30 0 0,0
16.01.2020 11:00:00 5,6 4,4 - - 16 9 - - SSE 1006,1 20 0 0,6
16.01.2020 10:00:00 5,6 3,6 - - 22 12 - - SSE 1007,1 8 0 0,0
16.01.2020 09:00:00 5,3 3,5 5,7 6,7 15 8 - - SSE 1007,4 26 0 0,0
16.01.2020 08:00:00 5,5 3,5 - - 22 12 - - S 1007,5 25 0 0,0
16.01.2020 07:00:00 6,2 3,8 - - 22 12 - - S 1007,8 27 0 0,0
16.01.2020 06:00:00 5,9 4,8 - - 28 15 48 26 S 1008,4 15 0 0,0
16.01.2020 05:00:00 5,8 5,0 - - 28 15 - - S 1008,7 7 0 0,2
16.01.2020 04:00:00 5,6 4,4 - - 22 12 - - S 1009,2 9 0 0,0
16.01.2020 03:00:00 5,5 3,3 - - 28 15 - - SSW 1009,8 17 0 0,0
16.01.2020 02:00:00 5,1 2,9 - - 24 13 - - SSW 1009,6 16 0 0,0
16.01.2020 01:00:00 4,9 2,4 - - 22 12 - - SSW 1009,3 21 0 0,0
16.01.2020 00:00:00 4,8 2,6 - - 22 12 - - S 1008,6 17 - 0,0
15.01.2020 23:00:00 4,9 2,4 - - 29 16 55 30 SSW 1007,0 22 0 0,0
15.01.2020 22:00:00 5,0 2,1 - - 28 15 46 25 SW 1005,8 19 0 0,0
15.01.2020 21:00:00 5,0 1,5 - - 34 18 52 28 SW 1004,5 22 0 0,0
15.01.2020 20:00:00 5,1 1,4 - - 35 19 59 32 SW 1003,4 23 0 0,0
15.01.2020 19:00:00 5,3 1,3 - - 35 19 61 33 SW 1002,4 26 0 0,0
15.01.2020 18:00:00 5,5 1,6 - - 34 18 63 34 SSW 1001,0 20 0 0,0
15.01.2020 17:00:00 5,3 1,9 - - 34 18 59 32 SSW 999,6 17 0 0,0
15.01.2020 16:00:00 5,3 1,6 - - 31 17 54 29 SSW 998,1 25 0 0,0
15.01.2020 15:00:00 5,5 1,8 - - 28 15 63 34 SSW 996,8 22 0 0,0
15.01.2020 14:00:00 5,6 1,7 - - 37 20 59 32 SSW 996,0 25 0 0,0
15.01.2020 13:00:00 5,4 1,6 - - 35 19 65 35 SSW 995,4 20 0 0,0
15.01.2020 12:00:00 5,2 1,2 - - 34 18 61 33 SSW 995,0 20 0 0,0
15.01.2020 11:00:00 4,9 1,3 - - 35 19 59 32 SSW 994,1 25 0 0,0
15.01.2020 10:00:00 4,6 1,0 - - 39 21 59 32 SSW 993,0 25 0 0,0
15.01.2020 09:00:00 4,4 1,3 5,7 6,7 31 17 50 27 S 992,2 22 0 0,0
15.01.2020 08:00:00 4,3 1,1 - - 29 16 55 30 S 991,2 20 0 0,0
15.01.2020 07:00:00 4,1 0,9 - - 29 16 - - SSW 990,4 17 0 0,0
15.01.2020 06:00:00 3,8 0,8 - - 26 14 - - SSW 989,8 18 0 0,0

tt = temperature
td = dewpoint
tt -20cm = temperature -20cm
tt -100cm = temperature -100cm
ff = wind speed
fx = gusts
dd = wind direction
ppp = reduced air pressure
vv = visibility
sd = sunshine duration
rr = precipitation

Next stations